Time,TemperatureF,DewpointF,PressureIn,WindDirection,WindDirectionDegrees,WindSpeedMPH,WindSpeedGustMPH,Humidity,HourlyPrecipIn,Conditions,Clouds,dailyrainin,SoftwareType,DateUTC
2014-01-19 00:00:00,21.6,19.3,29.67,WSW,247,3.0,8.0,91,0.00,-SN,,0.00,WeatherDisplay:10.37,2014-01-19 06:00:00,
2014-01-19 00:10:00,22.2,20.0,29.65,SW,234,6.0,12.0,91,0.00,-SN,,0.00,WeatherDisplay:10.37,2014-01-19 06:10:00,
2014-01-19 00:15:00,22.5,20.3,29.64,WSW,241,5.0,13.0,91,0.00,-SN,,0.00,WeatherDisplay:10.37,2014-01-19 06:15:00,
2014-01-19 00:20:00,22.8,20.5,29.64,WSW,250,5.0,8.0,91,0.00,-SN,,0.00,WeatherDisplay:10.37,2014-01-19 06:20:00,
2014-01-19 00:25:00,23.0,20.8,29.63,SW,229,6.0,12.0,91,0.00,-SN,,0.00,WeatherDisplay:10.37,2014-01-19 06:25:00,
2014-01-19 00:30:00,23.3,21.1,29.63,SW,228,3.0,12.0,91,0.00,-SN,,0.00,WeatherDisplay:10.37,2014-01-19 06:30:00,
2014-01-19 00:40:00,23.7,21.2,29.63,WSW,254,5.0,12.0,90,0.00,-SN,,0.00,WeatherDisplay:10.37,2014-01-19 06:40:00,
2014-01-19 00:50:00,24.1,21.6,29.62,WSW,237,3.0,10.0,90,0.00,-SN,,0.00,WeatherDisplay:10.37,2014-01-19 06:50:00,
2014-01-19 01:00:00,24.5,22.0,29.61,SW,230,5.0,12.0,90,0.00,-SN,,0.00,WeatherDisplay:10.37,2014-01-19 07:00:00,
2014-01-19 01:10:00,24.7,22.2,29.60,WSW,243,3.0,10.0,90,0.00,-SN,,0.00,WeatherDisplay:10.37,2014-01-19 07:10:00,
2014-01-19 01:15:00,24.8,22.3,29.60,WSW,252,5.0,12.0,90,0.00,-SN,,0.00,WeatherDisplay:10.37,2014-01-19 07:15:00,
2014-01-19 01:20:00,24.9,22.4,29.59,WSW,238,5.0,12.0,90,0.00,-SN,,0.00,WeatherDisplay:10.37,2014-01-19 07:20:00,
2014-01-19 01:25:00,25.0,22.5,29.59,SW,227,5.0,14.0,90,0.00,-SN,,0.00,WeatherDisplay:10.37,2014-01-19 07:25:00,
2014-01-19 01:30:00,25.1,22.6,29.59,SW,225,5.0,12.0,90,0.00,-SN,,0.00,WeatherDisplay:10.37,2014-01-19 07:30:00,
2014-01-19 01:40:00,25.1,22.3,29.58,SW,236,5.0,12.0,89,0.00,-SN,,0.00,WeatherDisplay:10.37,2014-01-19 07:40:00,
2014-01-19 01:45:00,25.1,22.3,29.58,WSW,242,3.0,9.0,89,0.00,-SN,,0.00,WeatherDisplay:10.37,2014-01-19 07:45:00,
2014-01-19 01:50:00,25.1,22.5,29.58,WSW,243,5.0,12.0,90,0.00,-SN,,0.00,WeatherDisplay:10.37,2014-01-19 07:50:00,
2014-01-19 02:00:00,25.1,22.6,29.58,SSW,210,5.0,10.0,90,0.00,-SN,,0.00,WeatherDisplay:10.37,2014-01-19 08:00:00,
2014-01-19 02:10:00,25.1,22.6,29.58,SW,234,3.0,8.0,90,0.00,-SN,,0.00,WeatherDisplay:10.37,2014-01-19 08:10:00,
2014-01-19 02:15:00,25.1,22.6,29.58,SW,233,3.0,6.0,90,0.00,-SN,,0.00,WeatherDisplay:10.37,2014-01-19 08:15:00,
2014-01-19 02:20:00,25.1,22.6,29.59,SW,224,3.0,6.0,90,0.00,-SN,,0.00,WeatherDisplay:10.37,2014-01-19 08:20:00,
2014-01-19 02:30:00,25.1,22.6,29.59,WSW,239,3.0,7.0,90,0.00,-SN,,0.00,WeatherDisplay:10.37,2014-01-19 08:30:00,
2014-01-19 02:40:00,25.2,22.7,29.59,SW,227,3.0,8.0,90,0.00,-SN,,0.00,WeatherDisplay:10.37,2014-01-19 08:40:00,
2014-01-19 02:45:00,25.1,22.6,29.58,SW,226,5.0,9.0,90,0.00,-SN,,0.00,WeatherDisplay:10.37,2014-01-19 08:45:00,
2014-01-19 02:50:00,25.1,22.6,29.59,WSW,246,3.0,8.0,90,0.00,-SN,,0.00,WeatherDisplay:10.37,2014-01-19 08:50:00,
2014-01-19 03:00:00,25.0,22.5,29.59,SW,219,5.0,8.0,90,0.00,-SN,,0.00,WeatherDisplay:10.37,2014-01-19 09:00:00,
2014-01-19 03:10:00,24.9,22.4,29.58,SW,226,3.0,12.0,90,0.00,-SN,,0.00,WeatherDisplay:10.37,2014-01-19 09:10:00,
2014-01-19 03:15:00,24.9,22.4,29.58,SW,230,2.0,9.0,90,0.00,-SN,,0.00,WeatherDisplay:10.37,2014-01-19 09:15:00,
2014-01-19 03:20:00,24.9,22.4,29.58,WSW,243,3.0,8.0,90,0.00,-SN,,0.00,WeatherDisplay:10.37,2014-01-19 09:20:00,
2014-01-19 03:25:00,25.0,22.5,29.58,SW,228,3.0,8.0,90,0.00,-SN,,0.00,WeatherDisplay:10.37,2014-01-19 09:25:00,
2014-01-19 03:30:00,25.1,22.6,29.58,SW,217,5.0,9.0,90,0.00,-SN,,0.00,WeatherDisplay:10.37,2014-01-19 09:30:00,
2014-01-19 03:40:00,25.4,22.9,29.58,WSW,241,5.0,7.0,90,0.00,-SN,,0.00,WeatherDisplay:10.37,2014-01-19 09:40:00,
2014-01-19 03:45:00,25.7,23.2,29.58,WSW,253,2.0,7.0,90,0.00,-SN,,0.00,WeatherDisplay:10.37,2014-01-19 09:45:00,
2014-01-19 03:50:00,25.9,23.4,29.58,WSW,252,3.0,10.0,90,0.00,-SN,,0.00,WeatherDisplay:10.37,2014-01-19 09:50:00,
2014-01-19 04:00:00,26.1,23.3,29.57,WSW,237,3.0,8.0,89,0.00,-SN,,0.00,WeatherDisplay:10.37,2014-01-19 10:00:00,
2014-01-19 04:10:00,26.6,23.5,29.57,WSW,249,3.0,10.0,88,0.00,-SN,,0.00,WeatherDisplay:10.37,2014-01-19 10:10:00,
2014-01-19 04:15:00,26.8,23.7,29.57,WSW,250,3.0,9.0,88,0.00,-SN,,0.00,WeatherDisplay:10.37,2014-01-19 10:15:00,
2014-01-19 04:20:00,26.9,23.5,29.57,WSW,251,6.0,14.0,87,0.00,-SN,,0.00,WeatherDisplay:10.37,2014-01-19 10:20:00,
2014-01-19 04:30:00,27.0,23.6,29.56,WSW,256,5.0,12.0,87,0.00,-SN,,0.00,WeatherDisplay:10.37,2014-01-19 10:30:00,
2014-01-19 04:40:00,26.6,23.2,29.56,WSW,249,5.0,9.0,87,0.00,-SN,,0.00,WeatherDisplay:10.37,2014-01-19 10:40:00,
2014-01-19 04:45:00,26.6,23.5,29.56,WSW,253,5.0,10.0,88,0.00,-SN,,0.00,WeatherDisplay:10.37,2014-01-19 10:45:00,
2014-01-19 04:50:00,26.2,23.1,29.56,WSW,254,3.0,7.0,88,0.00,-SN,,0.00,WeatherDisplay:10.37,2014-01-19 10:50:00,
2014-01-19 04:55:00,26.1,23.0,29.56,WSW,252,3.0,9.0,88,0.00,-SN,,0.00,WeatherDisplay:10.37,2014-01-19 10:55:00,
2014-01-19 05:00:00,26.2,23.2,29.56,WSW,255,5.0,7.0,88,0.00,-SN,,0.00,WeatherDisplay:10.37,2014-01-19 11:00:00,
2014-01-19 05:10:00,26.6,23.5,29.56,WSW,254,2.0,7.0,88,0.00,-SN,,0.00,WeatherDisplay:10.37,2014-01-19 11:10:00,
2014-01-19 05:15:00,26.4,23.3,29.56,WSW,253,2.0,7.0,88,0.00,-SN,,0.00,WeatherDisplay:10.37,2014-01-19 11:15:00,
2014-01-19 05:20:00,26.2,22.9,29.57,WSW,250,1.0,5.0,87,0.00,-SN,,0.00,WeatherDisplay:10.37,2014-01-19 11:20:00,
2014-01-19 05:30:00,26.5,23.7,29.57,WSW,240,2.0,6.0,89,0.00,-SN,,0.00,WeatherDisplay:10.37,2014-01-19 11:30:00,
2014-01-19 05:40:00,25.8,22.7,29.57,WSW,253,3.0,7.0,88,0.00,-SN,,0.00,WeatherDisplay:10.37,2014-01-19 11:40:00,
2014-01-19 05:45:00,25.5,22.4,29.57,WSW,253,3.0,9.0,88,0.00,-SN,,0.00,WeatherDisplay:10.37,2014-01-19 11:45:00,
2014-01-19 05:50:00,25.1,22.3,29.57,WSW,253,3.0,8.0,89,0.00,-SN,,0.00,WeatherDisplay:10.37,2014-01-19 11:50:00,
2014-01-19 06:00:00,25.1,22.6,29.57,WSW,251,2.0,4.0,90,0.00,-SN,,0.00,WeatherDisplay:10.37,2014-01-19 12:00:00,
2014-01-19 06:10:00,24.7,21.9,29.57,WSW,255,2.0,3.0,89,0.00,-SN,,0.00,WeatherDisplay:10.37,2014-01-19 12:10:00,
2014-01-19 06:15:00,24.3,21.5,29.57,WSW,255,1.0,4.0,89,0.00,-SN,,0.00,WeatherDisplay:10.37,2014-01-19 12:15:00,
2014-01-19 06:20:00,24.2,22.0,29.57,WSW,250,1.0,3.0,91,0.00,-SN,,0.00,WeatherDisplay:10.37,2014-01-19 12:20:00,
2014-01-19 06:25:00,24.5,22.2,29.57,WSW,249,2.0,6.0,91,0.00,-SN,,0.00,WeatherDisplay:10.37,2014-01-19 12:25:00,
2014-01-19 06:30:00,24.6,22.3,29.57,WSW,254,3.0,4.0,91,0.00,-SN,,0.00,WeatherDisplay:10.37,2014-01-19 12:30:00,
2014-01-19 06:40:00,24.0,21.8,29.57,WSW,251,2.0,5.0,91,0.00,-SN,,0.00,WeatherDisplay:10.37,2014-01-19 12:40:00,
2014-01-19 06:45:00,24.3,22.3,29.57,WSW,257,2.0,4.0,92,0.00,-SN,,0.00,WeatherDisplay:10.37,2014-01-19 12:45:00,
2014-01-19 06:50:00,24.1,21.9,29.57,West,260,2.0,4.0,91,0.00,-SN,,0.00,WeatherDisplay:10.37,2014-01-19 12:50:00,
2014-01-19 07:00:00,23.5,21.2,29.57,West,261,0.0,1.0,91,0.00,-SN,,0.00,WeatherDisplay:10.37,2014-01-19 13:00:00,
2014-01-19 07:05:00,23.1,20.8,29.56,West,261,0.0,1.0,91,0.00,-SN,,0.00,WeatherDisplay:10.37,2014-01-19 13:05:00,
2014-01-19 07:10:00,22.8,20.8,29.56,WSW,256,1.0,2.0,92,0.00,-SN,,0.00,WeatherDisplay:10.37,2014-01-19 13:10:00,
2014-01-19 07:15:00,22.9,21.2,29.56,West,261,0.0,2.0,93,0.00,-SN,,0.00,WeatherDisplay:10.37,2014-01-19 13:15:00,
2014-01-19 07:20:00,23.2,21.7,29.56,West,264,1.0,3.0,94,0.00,-SN,,0.00,WeatherDisplay:10.37,2014-01-19 13:20:00,
2014-01-19 07:30:00,23.4,21.9,29.56,WSW,246,1.0,3.0,94,0.00,-SN,,0.00,WeatherDisplay:10.37,2014-01-19 13:30:00,
2014-01-19 07:40:00,23.4,21.9,29.56,WSW,256,2.0,4.0,94,0.00,-SN,,0.00,WeatherDisplay:10.37,2014-01-19 13:40:00,
2014-01-19 07:45:00,23.3,21.8,29.56,WSW,252,1.0,3.0,94,0.00,-SN,,0.00,WeatherDisplay:10.37,2014-01-19 13:45:00,
2014-01-19 07:50:00,23.3,21.9,29.56,West,263,1.0,3.0,94,0.00,-SN,,0.00,WeatherDisplay:10.37,2014-01-19 13:50:00,
2014-01-19 08:00:00,23.4,21.9,29.56,WSW,257,1.0,3.0,94,0.00,-SN,,0.00,WeatherDisplay:10.37,2014-01-19 14:00:00,
2014-01-19 08:10:00,22.7,21.0,29.56,West,266,0.0,1.0,93,0.00,-SN,,0.00,WeatherDisplay:10.37,2014-01-19 14:10:00,
2014-01-19 08:15:00,22.9,21.4,29.57,West,262,1.0,3.0,94,0.00,-SN,,0.00,WeatherDisplay:10.37,2014-01-19 14:15:00,
2014-01-19 08:20:00,23.1,21.6,29.58,WSW,256,2.0,3.0,94,0.00,-SN,,0.00,WeatherDisplay:10.37,2014-01-19 14:20:00,
2014-01-19 08:30:00,22.9,21.2,29.58,WSW,256,3.0,5.0,93,0.00,-SN,,0.00,WeatherDisplay:10.37,2014-01-19 14:30:00,
2014-01-19 08:40:00,20.0,17.5,29.58,WNW,299,1.0,3.0,90,0.00,-SN,,0.00,WeatherDisplay:10.37,2014-01-19 14:40:00,
2014-01-19 08:45:00,19.5,17.8,29.58,NW,319,2.0,5.0,93,0.00,-SN,,0.00,WeatherDisplay:10.37,2014-01-19 14:45:00,
2014-01-19 08:50:00,19.8,18.3,29.59,NW,313,2.0,5.0,94,0.00,-SN,,0.00,WeatherDisplay:10.37,2014-01-19 14:50:00,
2014-01-19 09:00:00,21.8,20.8,29.59,WNW,299,3.0,5.0,96,0.00,-SN,,0.00,WeatherDisplay:10.37,2014-01-19 15:00:00,
2014-01-19 09:10:00,23.3,22.1,29.59,West,275,2.0,5.0,95,0.00,-SN,,0.00,WeatherDisplay:10.37,2014-01-19 15:10:00,
2014-01-19 09:15:00,23.7,22.2,29.59,WNW,282,3.0,4.0,94,0.00,-SN,,0.00,WeatherDisplay:10.37,2014-01-19 15:15:00,
2014-01-19 09:20:00,24.2,22.7,29.59,West,278,6.0,6.0,94,0.00,-SN,,0.00,WeatherDisplay:10.37,2014-01-19 15:20:00,
2014-01-19 09:30:00,25.0,23.3,29.58,West,281,3.0,4.0,93,0.00,-SN,,0.00,WeatherDisplay:10.37,2014-01-19 15:30:00,
2014-01-19 09:40:00,25.4,23.4,29.59,West,280,2.0,4.0,92,0.00,-SN,,0.00,WeatherDisplay:10.37,2014-01-19 15:40:00,
2014-01-19 09:45:00,25.7,23.7,29.58,WNW,289,3.0,6.0,92,0.00,-SN,,0.00,WeatherDisplay:10.37,2014-01-19 15:45:00,
2014-01-19 09:50:00,25.8,23.8,29.57,NW,311,8.0,10.0,92,0.00,-SN,,0.00,WeatherDisplay:10.37,2014-01-19 15:50:00,
2014-01-19 09:55:00,25.9,23.9,29.57,NW,316,6.0,8.0,92,0.00,-SN,,0.00,WeatherDisplay:10.37,2014-01-19 15:55:00,
2014-01-19 10:00:00,26.0,24.0,29.57,NW,317,7.0,9.0,92,0.00,-SN,,0.00,WeatherDisplay:10.37,2014-01-19 16:00:00,
2014-01-19 10:10:00,26.0,24.3,29.58,NW,312,6.0,9.0,93,0.00,-SN,,0.00,WeatherDisplay:10.37,2014-01-19 16:10:00,
2014-01-19 10:15:00,26.1,24.1,29.58,NW,307,7.0,9.0,92,0.00,-SN,,0.00,WeatherDisplay:10.37,2014-01-19 16:15:00,
2014-01-19 10:20:00,26.1,24.1,29.58,NW,306,7.0,9.0,92,0.00,-SN,,0.00,WeatherDisplay:10.37,2014-01-19 16:20:00,
2014-01-19 10:25:00,26.1,24.1,29.58,NW,307,3.0,6.0,92,0.00,-SN,,0.00,WeatherDisplay:10.37,2014-01-19 16:25:00,
2014-01-19 10:30:00,26.3,24.3,29.58,WNW,302,5.0,6.0,92,0.00,-SN,,0.00,WeatherDisplay:10.37,2014-01-19 16:30:00,
2014-01-19 10:40:00,26.7,24.4,29.57,WNW,284,3.0,5.0,91,0.00,-SN,,0.00,WeatherDisplay:10.37,2014-01-19 16:40:00,
2014-01-19 10:45:00,27.0,24.7,29.57,WNW,282,2.0,4.0,91,0.00,-SN,,0.00,WeatherDisplay:10.37,2014-01-19 16:45:00,
2014-01-19 10:50:00,27.1,24.9,29.57,WNW,282,2.0,4.0,91,0.00,-SN,,0.00,WeatherDisplay:10.37,2014-01-19 16:50:00,
2014-01-19 11:00:00,27.5,25.0,29.56,NW,317,5.0,5.0,90,0.00,-SN,,0.00,WeatherDisplay:10.37,2014-01-19 17:00:00,
2014-01-19 11:10:00,27.1,24.5,29.56,NW,325,5.0,5.0,90,0.00,-SN,,0.00,WeatherDisplay:10.37,2014-01-19 17:10:00,
2014-01-19 11:15:00,26.9,24.7,29.55,NW,325,3.0,5.0,91,0.00,-SN,,0.00,WeatherDisplay:10.37,2014-01-19 17:15:00,
2014-01-19 11:20:00,27.0,24.8,29.55,NNW,333,2.0,3.0,91,0.00,-SN,,0.00,WeatherDisplay:10.37,2014-01-19 17:20:00,
2014-01-19 11:30:00,27.0,24.7,29.54,North,8,3.0,5.0,91,0.00,-SN,,0.00,WeatherDisplay:10.37,2014-01-19 17:30:00,
2014-01-19 11:40:00,27.2,24.7,29.54,North,353,5.0,7.0,90,0.00,-SN,,0.00,WeatherDisplay:10.37,2014-01-19 17:40:00,
2014-01-19 11:45:00,27.2,24.7,29.54,NNW,336,3.0,5.0,90,0.00,-SN,,0.00,WeatherDisplay:10.37,2014-01-19 17:45:00,
2014-01-19 11:50:00,27.2,24.6,29.54,NW,315,3.0,7.0,90,0.00,-SN,,0.00,WeatherDisplay:10.37,2014-01-19 17:50:00,
2014-01-19 12:00:00,27.1,24.6,29.54,NW,304,5.0,7.0,90,0.00,-SN,,0.00,WeatherDisplay:10.37,2014-01-19 18:00:00,
2014-01-19 12:10:00,27.1,24.6,29.55,WNW,296,3.0,7.0,90,0.00,-SN,,0.00,WeatherDisplay:10.37,2014-01-19 18:10:00,
2014-01-19 12:20:00,27.1,24.6,29.55,WNW,286,6.0,7.0,90,0.00,-SN,,0.00,WeatherDisplay:10.37,2014-01-19 18:20:00,
2014-01-19 12:30:00,27.1,24.6,29.54,WNW,302,2.0,4.0,90,0.00,-SN,,0.00,WeatherDisplay:10.37,2014-01-19 18:30:00,
2014-01-19 12:40:00,27.5,24.9,29.53,NW,306,0.0,0.0,90,0.00,-SN,,0.00,WeatherDisplay:10.37,2014-01-19 18:40:00,
2014-01-19 12:45:00,27.5,24.7,29.54,NW,309,3.0,5.0,89,0.00,-SN,,0.00,WeatherDisplay:10.37,2014-01-19 18:45:00,
2014-01-19 12:50:00,27.4,24.6,29.54,NW,307,3.0,5.0,89,0.00,-SN,,0.00,WeatherDisplay:10.37,2014-01-19 18:50:00,
2014-01-19 13:00:00,27.2,24.6,29.54,NW,324,6.0,7.0,90,0.00,-SN,,0.00,WeatherDisplay:10.37,2014-01-19 19:00:00,
2014-01-19 13:10:00,27.1,24.6,29.54,NW,315,3.0,5.0,90,0.00,-SN,,0.00,WeatherDisplay:10.37,2014-01-19 19:10:00,
2014-01-19 13:15:00,27.1,24.6,29.54,NW,306,3.0,5.0,90,0.00,-SN,,0.00,WeatherDisplay:10.37,2014-01-19 19:15:00,
2014-01-19 13:20:00,27.3,24.8,29.55,WNW,294,3.0,5.0,90,0.00,-SN,,0.00,WeatherDisplay:10.37,2014-01-19 19:20:00,
2014-01-19 13:30:00,27.7,24.9,29.54,WNW,282,2.0,4.0,89,0.00,-SN,,0.00,WeatherDisplay:10.37,2014-01-19 19:30:00,
2014-01-19 13:40:00,27.8,25.0,29.54,West,270,3.0,5.0,89,0.00,-SN,,0.00,WeatherDisplay:10.37,2014-01-19 19:40:00,
2014-01-19 13:45:00,27.8,25.0,29.54,West,279,5.0,7.0,89,0.00,-SN,,0.00,WeatherDisplay:10.37,2014-01-19 19:45:00,
2014-01-19 13:50:00,27.8,25.0,29.54,West,270,3.0,6.0,89,0.00,-SN,,0.00,WeatherDisplay:10.37,2014-01-19 19:50:00,
2014-01-19 13:55:00,27.8,25.0,29.55,West,260,3.0,6.0,89,0.00,-SN,,0.00,WeatherDisplay:10.37,2014-01-19 19:55:00,
2014-01-19 14:00:00,27.8,25.0,29.55,West,260,5.0,7.0,89,0.00,-SN,,0.00,WeatherDisplay:10.37,2014-01-19 20:00:00,
2014-01-19 14:10:00,27.9,25.0,29.55,West,267,7.0,8.0,89,0.00,-SN,,0.00,WeatherDisplay:10.37,2014-01-19 20:10:00,
2014-01-19 14:15:00,27.9,25.1,29.55,West,269,6.0,8.0,89,0.00,-SN,,0.00,WeatherDisplay:10.37,2014-01-19 20:15:00,
2014-01-19 14:20:00,27.9,25.1,29.55,West,269,6.0,7.0,89,0.00,-SN,,0.00,WeatherDisplay:10.37,2014-01-19 20:20:00,
2014-01-19 14:30:00,28.0,25.2,29.55,West,274,7.0,9.0,89,0.00,-SN,,0.00,WeatherDisplay:10.37,2014-01-19 20:30:00,
2014-01-19 14:40:00,27.9,25.1,29.56,West,275,9.0,12.0,89,0.00,-SN,,0.00,WeatherDisplay:10.37,2014-01-19 20:40:00,
2014-01-19 14:45:00,28.0,25.2,29.56,West,275,8.0,12.0,89,0.00,-SN,,0.00,WeatherDisplay:10.37,2014-01-19 20:45:00,
2014-01-19 14:50:00,28.0,25.2,29.56,West,279,8.0,10.0,89,0.00,-SN,,0.00,WeatherDisplay:10.37,2014-01-19 20:50:00,
2014-01-19 15:00:00,28.1,25.3,29.57,WNW,285,8.0,12.0,89,0.00,-SN,,0.00,WeatherDisplay:10.37,2014-01-19 21:00:00,
2014-01-19 15:10:00,28.3,25.2,29.57,WNW,288,8.0,12.0,88,0.00,-SN,,0.00,WeatherDisplay:10.37,2014-01-19 21:10:00,
2014-01-19 15:15:00,28.4,25.3,29.58,WNW,290,8.0,12.0,88,0.00,-SN,,0.00,WeatherDisplay:10.37,2014-01-19 21:15:00,
2014-01-19 15:20:00,28.4,25.3,29.58,WNW,291,7.0,10.0,88,0.00,-SN,,0.00,WeatherDisplay:10.37,2014-01-19 21:20:00,
2014-01-19 15:30:00,28.3,25.5,29.58,WNW,295,8.0,10.0,89,0.00,-SN,,0.00,WeatherDisplay:10.37,2014-01-19 21:30:00,
2014-01-19 15:40:00,28.2,25.6,29.60,WNW,298,10.0,14.0,90,0.00,-SN,,0.00,WeatherDisplay:10.37,2014-01-19 21:40:00,
2014-01-19 15:45:00,28.1,25.8,29.60,WNW,297,9.0,13.0,91,0.00,-SN,,0.00,WeatherDisplay:10.37,2014-01-19 21:45:00,
2014-01-19 15:50:00,28.1,25.8,29.60,WNW,299,8.0,12.0,91,0.00,-SN,,0.00,WeatherDisplay:10.37,2014-01-19 21:50:00,
2014-01-19 16:00:00,28.0,25.9,29.60,WNW,303,7.0,12.0,92,0.00,-SN,,0.00,WeatherDisplay:10.37,2014-01-19 22:00:00,
2014-01-19 16:10:00,27.8,26.1,29.60,NW,305,6.0,7.0,93,0.00,-SN,,0.00,WeatherDisplay:10.37,2014-01-19 22:10:00,
2014-01-19 16:15:00,27.8,25.8,29.60,NW,307,6.0,7.0,92,0.00,-SN,,0.00,WeatherDisplay:10.37,2014-01-19 22:15:00,
2014-01-19 16:20:00,27.7,25.7,29.60,NW,310,6.0,8.0,92,0.00,-SN,,0.00,WeatherDisplay:10.37,2014-01-19 22:20:00,
2014-01-19 16:30:00,27.6,25.6,29.61,NW,315,5.0,6.0,92,0.00,-SN,,0.00,WeatherDisplay:10.37,2014-01-19 22:30:00,
2014-01-19 16:40:00,27.7,25.6,29.62,NW,320,7.0,9.0,92,0.00,-SN,,0.00,WeatherDisplay:10.37,2014-01-19 22:40:00,
2014-01-19 16:45:00,27.7,25.4,29.62,NW,321,8.0,12.0,91,0.00,-SN,,0.00,WeatherDisplay:10.37,2014-01-19 22:45:00,
2014-01-19 16:50:00,27.8,25.5,29.63,NW,321,10.0,13.0,91,0.00,-SN,,0.00,WeatherDisplay:10.37,2014-01-19 22:50:00,
2014-01-19 17:00:00,27.8,25.2,29.64,NW,320,9.0,13.0,90,0.00,-SN,,0.00,WeatherDisplay:10.37,2014-01-19 23:00:00,
2014-01-19 17:10:00,27.7,25.2,29.64,NW,321,10.0,13.0,90,0.00,-SN,,0.00,WeatherDisplay:10.37,2014-01-19 23:10:00,
2014-01-19 17:15:00,27.7,25.2,29.64,NW,319,12.0,14.0,90,0.00,-SN,,0.00,WeatherDisplay:10.37,2014-01-19 23:15:00,
2014-01-19 17:20:00,27.7,24.9,29.64,NW,324,13.0,16.0,89,0.00,-SN,,0.00,WeatherDisplay:10.37,2014-01-19 23:20:00,
2014-01-19 17:30:00,27.5,24.7,29.65,NNW,332,13.0,15.0,89,0.00,-SN,,0.00,WeatherDisplay:10.37,2014-01-19 23:30:00,
2014-01-19 17:40:00,27.4,24.6,29.66,NNW,331,10.0,13.0,89,0.00,-SN,,0.00,WeatherDisplay:10.37,2014-01-19 23:40:00,
2014-01-19 17:45:00,27.3,24.5,29.66,NNW,332,12.0,14.0,89,0.00,-SN,,0.00,WeatherDisplay:10.37,2014-01-19 23:45:00,
2014-01-19 17:50:00,27.1,24.0,29.66,NNW,336,13.0,14.0,88,0.00,-SN,,0.00,WeatherDisplay:10.37,2014-01-19 23:50:00,
2014-01-19 18:00:00,26.8,23.7,29.66,NNW,346,10.0,12.0,88,0.00,-SN,,0.00,WeatherDisplay:10.37,2014-01-20 00:00:00,
2014-01-19 18:05:00,26.8,23.4,29.66,NNW,341,10.0,13.0,87,0.00,-SN,,0.00,WeatherDisplay:10.37,2014-01-20 00:05:00,
2014-01-19 18:10:00,26.6,23.3,29.67,NNW,339,12.0,14.0,87,0.00,-SN,,0.00,WeatherDisplay:10.37,2014-01-20 00:10:00,
2014-01-19 18:15:00,26.6,23.2,29.67,NNW,337,10.0,14.0,87,0.00,-SN,,0.00,WeatherDisplay:10.37,2014-01-20 00:15:00,
2014-01-19 18:20:00,26.5,22.9,29.67,NNW,333,10.0,13.0,86,0.00,-SN,,0.00,WeatherDisplay:10.37,2014-01-20 00:20:00,
2014-01-19 18:30:00,26.2,22.6,29.67,NNW,329,10.0,13.0,86,0.00,-SN,,0.00,WeatherDisplay:10.37,2014-01-20 00:30:00,
2014-01-19 18:40:00,25.8,21.9,29.68,NW,325,9.0,12.0,85,0.00,-SN,,0.00,WeatherDisplay:10.37,2014-01-20 00:40:00,
2014-01-19 18:45:00,25.5,21.9,29.69,NNW,330,8.0,9.0,86,0.00,-SN,,0.00,WeatherDisplay:10.37,2014-01-20 00:45:00,
2014-01-19 18:50:00,25.4,22.1,29.69,NNW,329,8.0,10.0,87,0.00,-SN,,0.00,WeatherDisplay:10.37,2014-01-20 00:50:00,
2014-01-19 19:00:00,25.4,22.1,29.69,NNW,334,8.0,10.0,87,0.00,-SN,,0.00,WeatherDisplay:10.37,2014-01-20 01:00:00,
2014-01-19 19:10:00,25.2,22.1,29.69,NNW,340,5.0,6.0,88,0.00,-SN,,0.00,WeatherDisplay:10.37,2014-01-20 01:10:00,
2014-01-19 19:15:00,25.0,22.0,29.69,NNW,344,5.0,5.0,88,0.00,-SN,,0.00,WeatherDisplay:10.37,2014-01-20 01:15:00,
2014-01-19 19:20:00,24.9,21.8,29.69,North,349,6.0,7.0,88,0.00,-SN,,0.00,WeatherDisplay:10.37,2014-01-20 01:20:00,
2014-01-19 19:30:00,24.9,21.3,29.69,North,359,7.0,9.0,86,0.00,-SN,,0.00,WeatherDisplay:10.37,2014-01-20 01:30:00,
2014-01-19 19:40:00,24.8,21.2,29.69,North,357,6.0,8.0,86,0.00,-SN,,0.00,WeatherDisplay:10.37,2014-01-20 01:40:00,
2014-01-19 19:45:00,24.7,21.1,29.70,North,349,6.0,8.0,86,0.00,-SN,,0.00,WeatherDisplay:10.37,2014-01-20 01:45:00,
2014-01-19 19:50:00,24.6,21.0,29.70,NNW,342,7.0,8.0,86,0.00,-SN,,0.00,WeatherDisplay:10.37,2014-01-20 01:50:00,
2014-01-19 20:00:00,24.6,21.0,29.71,NNW,338,6.0,8.0,86,0.00,-SN,,0.00,WeatherDisplay:10.37,2014-01-20 02:00:00,
2014-01-19 20:10:00,24.4,20.8,29.71,NNW,329,6.0,7.0,86,0.00,-SN,,0.00,WeatherDisplay:10.37,2014-01-20 02:10:00,
2014-01-19 20:15:00,24.3,21.0,29.71,NW,317,3.0,7.0,87,0.00,-SN,,0.00,WeatherDisplay:10.37,2014-01-20 02:15:00,
2014-01-19 20:20:00,24.4,21.1,29.71,NW,308,6.0,8.0,87,0.00,-SN,,0.00,WeatherDisplay:10.37,2014-01-20 02:20:00,
2014-01-19 20:25:00,24.3,20.7,29.71,WNW,301,6.0,7.0,86,0.00,-SN,,0.00,WeatherDisplay:10.37,2014-01-20 02:25:00,
2014-01-19 20:30:00,24.3,20.4,29.72,WNW,298,7.0,9.0,85,0.00,-SN,,0.00,WeatherDisplay:10.37,2014-01-20 02:30:00,
2014-01-19 20:40:00,24.1,20.0,29.72,NW,313,7.0,9.0,84,0.00,-SN,,0.00,WeatherDisplay:10.37,2014-01-20 02:40:00,
2014-01-19 20:45:00,24.0,19.9,29.72,NW,322,7.0,9.0,84,0.00,-SN,,0.00,WeatherDisplay:10.37,2014-01-20 02:45:00,
2014-01-19 20:50:00,23.9,19.5,29.72,NNW,332,7.0,9.0,83,0.00,-SN,,0.00,WeatherDisplay:10.37,2014-01-20 02:50:00,
2014-01-19 21:00:00,23.6,19.2,29.72,NNW,346,6.0,6.0,83,0.00,-SN,,0.00,WeatherDisplay:10.37,2014-01-20 03:00:00,
2014-01-19 21:10:00,23.4,19.2,29.72,NNW,337,6.0,7.0,84,0.00,-SN,,0.00,WeatherDisplay:10.37,2014-01-20 03:10:00,
2014-01-19 21:15:00,23.2,18.8,29.73,NNW,333,7.0,9.0,83,0.00,-SN,,0.00,WeatherDisplay:10.37,2014-01-20 03:15:00,
2014-01-19 21:20:00,23.1,18.8,29.73,NNW,330,6.0,8.0,83,0.00,-SN,,0.00,WeatherDisplay:10.37,2014-01-20 03:20:00,
2014-01-19 21:30:00,22.9,18.2,29.73,NNW,336,5.0,6.0,82,0.00,-SN,,0.00,WeatherDisplay:10.37,2014-01-20 03:30:00,
2014-01-19 21:40:00,22.8,18.4,29.73,NNW,344,3.0,4.0,83,0.00,-SN,,0.00,WeatherDisplay:10.37,2014-01-20 03:40:00,
2014-01-19 21:45:00,22.7,18.3,29.73,NNW,346,3.0,4.0,83,0.00,-SN,,0.00,WeatherDisplay:10.37,2014-01-20 03:45:00,
2014-01-19 21:50:00,22.6,18.5,29.73,NNW,348,3.0,3.0,84,0.00,-SN,,0.00,WeatherDisplay:10.37,2014-01-20 03:50:00,
2014-01-19 22:00:00,22.5,18.7,29.73,NNW,346,2.0,3.0,85,0.00,-SN,,0.00,WeatherDisplay:10.37,2014-01-20 04:00:00,
2014-01-19 22:10:00,22.4,18.6,29.73,NNW,344,2.0,3.0,85,0.00,-SN,,0.00,WeatherDisplay:10.37,2014-01-20 04:10:00,
2014-01-19 22:15:00,22.4,18.6,29.73,NNW,344,2.0,3.0,85,0.00,-SN,,0.00,WeatherDisplay:10.37,2014-01-20 04:15:00,
2014-01-19 22:20:00,22.4,18.6,29.73,NNW,340,5.0,5.0,85,0.00,-SN,,0.00,WeatherDisplay:10.37,2014-01-20 04:20:00,
2014-01-19 22:25:00,22.4,18.3,29.74,NNW,341,5.0,6.0,84,0.00,-SN,,0.00,WeatherDisplay:10.37,2014-01-20 04:25:00,
2014-01-19 22:30:00,22.4,18.3,29.74,NNW,343,3.0,5.0,84,0.00,-SN,,0.00,WeatherDisplay:10.37,2014-01-20 04:30:00,
2014-01-19 22:40:00,22.3,18.5,29.75,NNW,340,5.0,5.0,85,0.00,-SN,,0.00,WeatherDisplay:10.37,2014-01-20 04:40:00,
2014-01-19 22:45:00,22.3,18.2,29.75,NNW,334,5.0,6.0,84,0.00,-SN,,0.00,WeatherDisplay:10.37,2014-01-20 04:45:00,
2014-01-19 22:50:00,22.2,18.1,29.76,NNW,327,5.0,5.0,84,0.00,-SN,,0.00,WeatherDisplay:10.37,2014-01-20 04:50:00,
2014-01-19 22:55:00,22.2,18.3,29.76,NW,320,5.0,5.0,85,0.00,-SN,,0.00,WeatherDisplay:10.37,2014-01-20 04:55:00,
2014-01-19 23:00:00,22.1,18.3,29.76,NW,319,5.0,6.0,85,0.00,-SN,,0.00,WeatherDisplay:10.37,2014-01-20 05:00:00,
2014-01-19 23:05:00,22.1,18.3,29.76,NW,323,3.0,5.0,85,0.00,-SN,,0.00,WeatherDisplay:10.37,2014-01-20 05:05:00,
2014-01-19 23:10:00,22.0,18.2,29.76,NW,324,3.0,4.0,85,0.00,-SN,,0.00,WeatherDisplay:10.37,2014-01-20 05:10:00,
2014-01-19 23:15:00,22.0,18.4,29.76,NW,324,3.0,4.0,86,0.00,-SN,,0.00,WeatherDisplay:10.37,2014-01-20 05:15:00,
2014-01-19 23:20:00,21.9,18.4,29.77,NW,320,3.0,5.0,86,0.00,-SN,,0.00,WeatherDisplay:10.37,2014-01-20 05:20:00,
2014-01-19 23:30:00,21.8,18.3,29.77,NW,312,5.0,6.0,86,0.00,-SN,,0.00,WeatherDisplay:10.37,2014-01-20 05:30:00,
2014-01-19 23:40:00,21.6,18.6,29.77,NNW,332,7.0,8.0,88,0.00,-SN,,0.00,WeatherDisplay:10.37,2014-01-20 05:40:00,
2014-01-19 23:45:00,21.4,18.7,29.77,NNW,334,8.0,10.0,89,0.00,-SN,,0.00,WeatherDisplay:10.37,2014-01-20 05:45:00,
2014-01-19 23:50:00,21.3,18.8,29.77,NNW,334,7.0,10.0,90,0.00,-SN,,0.00,WeatherDisplay:10.37,2014-01-20 05:50:00,